[Date Prev][Date Next][Thread Prev][Thread Next] - [Date Index][Thread Index][Author Index]
2 Line ISS Keps 7-12
- Subject: [sarex] 2 Line ISS Keps 7-12
- From: "Dave Larsen PhD" <doc@xxxxxxxxxxx>
- Date: Thu, 12 Jul 2001 02:54:50 -0700
ISS
1 25544U 98067A 01193.22940391 .00038734 00000-0 40041-3 0 2028
2 25544 51.5727 321.9322 0016153 274.6583 167.4983 15.64192460150992
----
Via the sarex mailing list at AMSAT.ORG courtesy of AMSAT-NA.
To unsubscribe, send "unsubscribe sarex" to Majordomo@amsat.org
AMSAT Home